Regional Weather Roundup
Issued by NWS

Home | Current Version | Previous Version | Graphics & Text | Print | Product List | Glossary On
Versions: 1 2 3 4 5 6 7 8 9 10 11 12 13 14 15 16 17 18 19 20 21 22 23 24 25 26 27 28 29 30 31 32 33 34 35 36 37 38 39 40 41 42 43 44 45 46 47 48 49 50
000
ASUS45 KPSR 230410
RWRAZ

ARIZONA HOURLY REGIONAL WEATHER ROUNDUP
NATIONAL WEATHER SERVICE PHOENIX AZ
900 PM MST WED MAR 22 2017

NOTE: FAIR INDICATES FEW OR NO CLOUDS BELOW 12,000 FEET WITH NO
SIGNIFICANT WEATHER AND/OR OBSTRUCTIONS TO VISIBILITY.

AZZ001>003-036-230500-
NORTHWEST ARIZONA

CITY           SKY/WX    TMP DP  RH WIND       PRES   REMARKS
BULLHEAD CITY  LGT RAIN  66  43  42 SW6       29.81R
KINGMAN        CLOUDY    51  37  58 NW3       29.85S
$$

AZZ004>008-015-016-018-230500-
NORTH CENTRAL ARIZONA

CITY           SKY/WX    TMP DP  RH WIND       PRES   REMARKS
GRAND CANYON   LGT SNOW  34  34 100 SW20G30   29.95R FOG     WCI  23
WILLIAMS       MIX PCPN  34  32  93 W16G23    29.98R WCI  23
PRESCOTT       LGT RAIN  42  39  89 SW16      29.97S
FLAGSTAFF      TSTM      36  34  92 W16G25    29.94R FOG     WCI  26
PAYSON         MOCLDY    57  43  58 S14       29.95S
PAGE           CLOUDY    57  32  38 W13G22    29.79R
$$

AZZ009>014-017-230500-
NORTHEAST ARIZONA

CITY           SKY/WX    TMP DP  RH WIND       PRES   REMARKS
WINSLOW        CLEAR     53  29  39 S8        29.88F
SAINT JOHNS    CLEAR     57  23  26 S9        29.92F
WINDOW ROCK    MOCLDY    52  19  27 S6        29.95F
SHOW LOW       CLEAR     48  25  40 S7        29.98S
$$

AZZ023-230500-
GREATER PHOENIX AREA

CITY           SKY/WX    TMP DP  RH WIND       PRES   REMARKS
PHOENIX        MOCLDY    66  48  52 NW17      29.84R
BUCKEYE        CLOUDY    64  41  42 NW15G23   29.87R
LUKE AFB       PTCLDY    64  46  53 NW26      29.83R
DEER VALLEY    MOCLDY    65  47  52 NW16G29   29.85R
SCOTTSDALE     PTCLDY    64  46  52 NW10G28   29.87R
MESA-GATEWAY   PTCLDY    72  48  43 W20G31    29.84R
CHANDLER       MOCLDY    68  48  49 W23G35    29.84R
$$

AZZ027-028-230500-
SOUTHWEST MARICOPA COUNTY AND PINAL COUNTY

CITY           SKY/WX    TMP DP  RH WIND       PRES   REMARKS
CASA GRANDE    NOT AVBL
GILA BEND      PTCLDY    64  46  52 W6        29.88R
$$

AZZ503-504-507>509-230500-
SOUTHEAST ARIZONA

CITY           SKY/WX    TMP DP  RH WIND       PRES   REMARKS
TUCSON         CLEAR     73  34  23 W14       29.90R
DAVIS-MONTHAN  CLEAR     72  29  20 W9        29.89R
NOGALES        CLEAR     65  41  41 SW14      29.97R
SIERRA VISTA   CLEAR     66  26  22 SW23      29.99R
DOUGLAS        CLEAR     70  22  16 SW18      29.97S
SAFFORD        CLEAR     73  24  16 W15       29.85R
$$

AZZ020-021-025-026-031-230500-
SOUTHWEST ARIZONA

CITY           SKY/WX    TMP DP  RH WIND       PRES   REMARKS
YUMA           MOCLDY    64  44  48 W14       29.86S
$$

CAZ031-033-041-043-047-048-061-230500-
SOUTHERN CALIFORNIA

CITY           SKY/WX    TMP DP  RH WIND       PRES   REMARKS
DOWNTOWN L.A.  PTCLDY    59  52  77 CALM      29.98R
L.A. AIRPORT   PTCLDY    58  52  80 W22       29.99R
SAN DIEGO      LGT RAIN  61  54  77 W13       30.04S
BURBANK        MOCLDY    59  47  64 W6        29.96S
ONTARIO        MOCLDY    56  49  77 W12G20    29.99R
RIVERSIDE      MOCLDY    57  48  72 W12       29.99R
PALM SPRINGS   PTCLDY    65  38  36 SE6       29.88R
EL CENTRO NAS  PTCLDY    62  39  42 W23G33    29.92R
IMPERIAL       CLEAR     62  41  46 W24G36    29.87R
BLYTHE         PTCLDY    66  39  37 SW23G30   29.82S
NEEDLES        LGT RAIN  69  43  38 NW8       29.81R
$$

NVZ020-UTZ003-230500-
SOUTHERN NEVADA-UTAH

CITY           SKY/WX    TMP DP  RH WIND       PRES   REMARKS
LAS VEGAS      CLOUDY    63  25  23 SW12      29.75R
SALT LAKE CITY CLOUDY    53  44  71 N3        29.74F
$$

NMZ009-TXZ055-230500-
NEW MEXICO-WEST TEXAS

CITY           SKY/WX    TMP DP  RH WIND       PRES   REMARKS
ALBUQUERQUE    PTCLDY    67  15  13 S10       29.94R
EL PASO        CLEAR     81   5   5 W15       29.93R
$$


........................KEY........................
SKY/WX - SKY CONDITION/WEATHER
TMP    - TEMPERATURE IN FAHRENHEIT
DP     - DEW POINT IN FAHRENHEIT
RH     - RELATIVE HUMIDITY IN PERCENT
WIND   - DIRECTION AND SPEED IN MILES PER HOUR (MPH)
VRB    - VARIABLE WIND DIRECTION
PRES   - MEAN SEA LEVEL PRESSURE IN INCHES OF MERCURY
         F - FALLING PRESSURE   R - RISING PRESSURE
         S - STEADY PRESSURE
VSB    - VISIBILITY IN MILES
HX     - HEAT INDEX IN FAHRENHEIT
WCI    - WIND CHILL INDEX IN FAHRENHEIT
TC     - TEMPERATURE IN CELSIUS WHICH IS ALSO KNOWN AS
         TEMPERATURE IN CENTIGRADE
AFB    - AIR FORCE BASE
         LUKE AFB IS LUKE AIR FORCE BASE
         DAVIS-MONTHAN IS DAVIS-MONTHAN AIR FORCE BASE
NAS    - NAVAL AIR STATION
         EL CENTRO NAS IS EL CENTRO NAVAL AIR STATION
N/A    - NOT AVAILABLE




USA.gov is the U.S. government's official web portal to all federal, state and local government web resources and services.